Regional Weather Roundup
Issued by NWS

Home | Current Version | Previous Version | Text Only | Print | Product List | Glossary On
Versions: 1 2 3 4 5 6 7 8 9 10 11 12 13 14 15 16 17 18 19 20 21 22 23 24 25 26 27
000
ASUS45 KSLC 270010
RWRUT

UTAH REGIONAL WEATHER ROUNDUP
NATIONAL WEATHER SERVICE SALT LAKE CITY UT
600 PM MDT FRI AUG 26 2016

UTZ001>011-023>025-270100-

NORTHERN UTAH

CITY           SKY/WX    TMP DP  RH WIND       PRES   REMARKS
BRIGHAM CITY     N/A     81  17   9 SW6       29.97S
HILL AFB       MOSUNNY   78  25  14 W8        30.01S
LOGAN          MOSUNNY   80  22  11 SW9       29.97S
OGDEN          MOSUNNY   79  22  12 SW8       29.98F
PROVO AIRPORT  MOSUNNY   82  41  23 NW17      29.97S
SALT LAKE CITY MOSUNNY   83  27  13 N12G22    29.97S
VERNAL         CLOUDY    71  43  36 N8        30.06F
WENDOVER       PTSUNNY   82  27  13 SE6       29.96S
HEBER CITY     MOSUNNY   75  37  25 NW12      30.02R
WEST JORDAN    SUNNY     80  32  17 N13       30.00S

$$

UTZ012>022-026-027-270100-

SOUTHERN/CENTRAL UTAH

CITY           SKY/WX    TMP DP  RH WIND       PRES   REMARKS
BLANDING       PTSUNNY   73  44  34 SW8       30.22F
BRYCE CANYON   LGT RAIN  57  43  59 NE14      30.26S
CEDAR CITY     PTSUNNY   77  45  32 S16G24    30.09S
MILFORD        CLOUDY    71  45  39 S13       30.04R
MOAB/CYNLANDS  CLOUDY    81  44  27 W18       30.01F
PRICE          CLOUDY    68  48  48 E6        30.11R
ST GEORGE      PTCLDY    86  52  30 SE16      29.94F

$$

REGIONAL REPORTS     COLORADO/ARIZONA

CITY           SKY/WX    TMP DP  RH WIND       PRES   REMARKS
CRAIG, CO      LGT RAIN  69  32  25 N14       30.12R
GRAND JUNCTION SUNNY     77  49  37 CALM      30.04F
RIFLE          SUNNY     77  36  22 W14       30.07F
MONTROSE       CLOUDY    75  41  29 NW5       30.13R
CORTEZ         SUNNY     74  43  32 W8        30.16S
PAGE, AZ       PTSUNNY   82  47  29 NE5       30.03F
GRAND CANYON   PTSUNNY   67  45  45 S7        30.23S
KINGMAN        PTSUNNY   88  47  24 SW13      29.98F
FLAGSTAFF      CLOUDY    57  51  80 CALM      30.28F

$$

REGIONAL REPORTS    NEVADA/IDAHO/WYOMING

CITY           SKY/WX    TMP DP  RH WIND       PRES   REMARKS
LAS VEGAS, NV  PTSUNNY   96  40  14 NW9       29.82S HX  92
ELY            MOSUNNY   81  19  10 NW8       30.06F
ELKO           MOSUNNY   81  17   9 S10       30.02F
POCATELLO, ID  CLOUDY    77  28  16 W15       30.00F
BURLEY         MOSUNNY   73  42  32 W7        29.98F
EVANSTON, WY   CLOUDY    68  31  25 W21G28    30.14R
ROCK SPRINGS   CLOUDY    63  38  39 SW10      30.13F

$$




USA.gov is the U.S. government's official web portal to all federal, state and local government web resources and services.